Location: Newark
(25.6108°S, 54.5803°W)
Time: 07:23:18
(UTC+00:00)

Tiros 1 - Pass Details

Date: 03 November 2020
Orbit: 630 x 664 km, 48.4° (Epoch: 29 November)

Event Time Altitude Azimuth Distance (km) Brightness Sun altitude
Rises 15:15:54 0° 311° (NW) 2,940 10.6 79.6°
Reaches altitude 10° 15:18:13 10° 309° (NW) 2,042 10.0 79.7°
Maximum altitude 15:22:56 73° 224° (SW) 686 8.8 79.7°
Drops below altitude 10° 15:27:44 10° 139° (SE) 2,082 9.8 79.6°
Sets 15:30:07 0° 136° (SE) 3,003 10.5 79.6°
